Time,TemperatureF,DewpointF,PressureIn,WindDirection,WindDirectionDegrees,WindSpeedMPH,WindSpeedGustMPH,Humidity,HourlyPrecipIn,Conditions,Clouds,dailyrainin,SoftwareType,DateUTC
2013-09-09 00:04:00,75.3,69.8,29.91,West,269,0.0,0.0,83,0.00,,,0.00,WeatherTracker,2013-09-09 05:04:00,
2013-09-09 00:09:00,75.2,69.7,29.93,West,269,0.0,0.0,83,0.00,,,0.00,WeatherTracker,2013-09-09 05:09:00,
2013-09-09 00:14:00,75.1,69.6,29.92,West,270,0.0,0.0,83,0.00,,,0.00,WeatherTracker,2013-09-09 05:14:00,
2013-09-09 00:19:00,75.0,69.5,29.93,West,270,0.0,0.0,83,0.00,,,0.00,WeatherTracker,2013-09-09 05:19:00,
2013-09-09 00:24:00,75.0,69.5,29.93,West,270,0.0,0.0,83,0.00,,,0.00,WeatherTracker,2013-09-09 05:24:00,
2013-09-09 00:29:00,74.9,69.4,29.92,West,269,1.0,0.0,83,0.00,,,0.00,WeatherTracker,2013-09-09 05:29:00,
2013-09-09 00:34:00,74.9,69.4,29.92,West,270,0.0,0.0,83,0.00,,,0.00,WeatherTracker,2013-09-09 05:34:00,
2013-09-09 00:39:00,74.9,69.4,29.93,West,270,0.0,0.0,83,0.00,,,0.00,WeatherTracker,2013-09-09 05:39:00,
2013-09-09 00:44:00,75.0,69.5,29.93,West,270,0.0,0.0,83,0.00,,,0.00,WeatherTracker,2013-09-09 05:44:00,
2013-09-09 00:49:00,74.9,69.4,29.93,West,269,0.0,0.0,83,0.00,,,0.00,WeatherTracker,2013-09-09 05:49:00,
2013-09-09 00:54:00,74.9,69.7,29.93,West,270,0.0,0.0,84,0.00,,,0.00,WeatherTracker,2013-09-09 05:54:00,
2013-09-09 00:59:00,74.8,69.3,29.93,West,269,0.0,0.0,83,0.00,,,0.00,WeatherTracker,2013-09-09 05:59:00,
2013-09-09 01:04:00,74.8,69.3,29.93,West,269,0.0,0.0,83,0.00,,,0.00,WeatherTracker,2013-09-09 06:04:00,
2013-09-09 01:10:00,74.7,69.2,29.93,West,270,0.0,0.0,83,0.00,,,0.00,WeatherTracker,2013-09-09 06:10:00,
2013-09-09 01:15:00,74.7,69.5,29.92,West,270,0.0,0.0,84,0.00,,,0.00,WeatherTracker,2013-09-09 06:15:00,
2013-09-09 01:20:00,74.7,69.5,29.92,West,270,0.0,0.0,84,0.00,,,0.00,WeatherTracker,2013-09-09 06:20:00,
2013-09-09 01:25:00,74.6,69.4,29.93,West,269,0.0,0.0,84,0.00,,,0.00,WeatherTracker,2013-09-09 06:25:00,
2013-09-09 01:30:00,74.6,69.4,29.92,West,270,0.0,0.0,84,0.00,,,0.00,WeatherTracker,2013-09-09 06:30:00,
2013-09-09 01:35:00,74.6,69.1,29.92,West,270,0.0,0.0,83,0.00,,,0.00,WeatherTracker,2013-09-09 06:35:00,
2013-09-09 01:40:00,74.4,68.9,29.92,West,269,0.0,0.0,83,0.00,,,0.00,WeatherTracker,2013-09-09 06:40:00,
2013-09-09 01:45:00,74.4,69.2,29.92,West,270,0.0,0.0,84,0.00,,,0.00,WeatherTracker,2013-09-09 06:45:00,
2013-09-09 01:50:00,74.3,69.1,29.92,West,269,0.0,0.0,84,0.00,,,0.00,WeatherTracker,2013-09-09 06:50:00,
2013-09-09 01:55:00,74.3,69.1,29.92,West,269,0.0,0.0,84,0.00,,,0.00,WeatherTracker,2013-09-09 06:55:00,
2013-09-09 02:00:00,74.3,69.1,29.91,West,269,0.0,0.0,84,0.00,,,0.00,WeatherTracker,2013-09-09 07:00:00,
2013-09-09 02:05:00,74.3,69.1,29.92,West,269,0.0,0.0,84,0.00,,,0.00,WeatherTracker,2013-09-09 07:05:00,
2013-09-09 02:10:00,74.4,69.2,29.92,West,270,0.0,0.0,84,0.00,,,0.00,WeatherTracker,2013-09-09 07:10:00,
2013-09-09 02:15:00,74.4,68.9,29.93,West,270,0.0,0.0,83,0.00,,,0.00,WeatherTracker,2013-09-09 07:15:00,
2013-09-09 02:20:00,74.5,69.0,29.93,West,270,0.0,0.0,83,0.00,,,0.00,WeatherTracker,2013-09-09 07:20:00,
2013-09-09 02:25:00,74.5,69.0,29.92,West,270,0.0,0.0,83,0.00,,,0.00,WeatherTracker,2013-09-09 07:25:00,
2013-09-09 02:30:00,74.5,69.0,29.93,West,269,0.0,0.0,83,0.00,,,0.00,WeatherTracker,2013-09-09 07:30:00,
2013-09-09 02:35:00,74.5,68.6,29.92,West,270,0.0,0.0,82,0.00,,,0.00,WeatherTracker,2013-09-09 07:35:00,
2013-09-09 02:40:00,74.5,68.6,29.92,West,270,0.0,0.0,82,0.00,,,0.00,WeatherTracker,2013-09-09 07:40:00,
2013-09-09 02:45:00,74.5,68.6,29.92,West,270,0.0,0.0,82,0.00,,,0.00,WeatherTracker,2013-09-09 07:45:00,
2013-09-09 02:51:00,74.5,68.6,29.93,West,269,0.0,0.0,82,0.00,,,0.00,WeatherTracker,2013-09-09 07:51:00,
2013-09-09 02:56:00,74.5,68.6,29.93,West,269,0.0,0.0,82,0.00,,,0.00,WeatherTracker,2013-09-09 07:56:00,
2013-09-09 03:01:00,74.4,68.5,29.93,West,269,0.0,0.0,82,0.00,,,0.00,WeatherTracker,2013-09-09 08:01:00,
2013-09-09 03:06:00,74.4,68.5,29.93,West,269,0.0,0.0,82,0.00,,,0.00,WeatherTracker,2013-09-09 08:06:00,
2013-09-09 03:11:00,74.4,68.5,29.93,West,270,0.0,0.0,82,0.00,,,0.00,WeatherTracker,2013-09-09 08:11:00,
2013-09-09 03:16:00,74.4,68.5,29.93,West,270,0.0,0.0,82,0.00,,,0.00,WeatherTracker,2013-09-09 08:16:00,
2013-09-09 03:21:00,74.4,68.5,29.93,West,270,0.0,0.0,82,0.00,,,0.00,WeatherTracker,2013-09-09 08:21:00,
2013-09-09 03:26:00,74.4,68.5,29.93,West,270,0.0,0.0,82,0.00,,,0.00,WeatherTracker,2013-09-09 08:26:00,
2013-09-09 03:31:00,74.3,68.4,29.93,West,270,0.0,0.0,82,0.00,,,0.00,WeatherTracker,2013-09-09 08:31:00,
2013-09-09 03:36:00,74.2,68.3,29.93,West,269,0.0,0.0,82,0.00,,,0.00,WeatherTracker,2013-09-09 08:36:00,
2013-09-09 03:41:00,74.2,68.3,29.93,West,270,0.0,0.0,82,0.00,,,0.00,WeatherTracker,2013-09-09 08:41:00,
2013-09-09 03:46:00,74.1,68.2,29.93,West,269,0.0,0.0,82,0.00,,,0.00,WeatherTracker,2013-09-09 08:46:00,
2013-09-09 03:51:00,74.1,68.6,29.93,West,270,0.0,0.0,83,0.00,,,0.00,WeatherTracker,2013-09-09 08:51:00,
2013-09-09 03:56:00,74.0,68.5,29.93,West,269,0.0,0.0,83,0.00,,,0.00,WeatherTracker,2013-09-09 08:56:00,
2013-09-09 04:01:00,73.9,68.4,29.93,West,270,0.0,0.0,83,0.00,,,0.00,WeatherTracker,2013-09-09 09:01:00,
2013-09-09 04:06:00,73.9,68.4,29.94,West,270,0.0,0.0,83,0.00,,,0.00,WeatherTracker,2013-09-09 09:06:00,
2013-09-09 04:11:00,73.8,68.3,29.93,West,270,0.0,0.0,83,0.00,,,0.00,WeatherTracker,2013-09-09 09:11:00,
2013-09-09 04:16:00,73.7,68.2,29.93,West,270,0.0,0.0,83,0.00,,,0.00,WeatherTracker,2013-09-09 09:16:00,
2013-09-09 04:21:00,73.6,68.1,29.94,West,270,0.0,0.0,83,0.00,,,0.00,WeatherTracker,2013-09-09 09:21:00,
2013-09-09 04:26:00,73.5,68.0,29.94,West,269,0.0,0.0,83,0.00,,,0.00,WeatherTracker,2013-09-09 09:26:00,
2013-09-09 04:31:00,73.4,68.3,29.94,West,269,0.0,0.0,84,0.00,,,0.00,WeatherTracker,2013-09-09 09:31:00,
2013-09-09 04:36:00,73.3,68.2,29.95,West,270,0.0,0.0,84,0.00,,,0.00,WeatherTracker,2013-09-09 09:36:00,
2013-09-09 04:41:00,73.2,68.1,29.94,West,270,0.0,0.0,84,0.00,,,0.00,WeatherTracker,2013-09-09 09:41:00,
2013-09-09 04:46:00,73.1,68.0,29.94,West,270,0.0,0.0,84,0.00,,,0.00,WeatherTracker,2013-09-09 09:46:00,
2013-09-09 04:51:00,73.1,68.3,29.94,West,270,0.0,0.0,85,0.00,,,0.00,WeatherTracker,2013-09-09 09:51:00,
2013-09-09 04:56:00,73.0,68.2,29.94,West,270,0.0,0.0,85,0.00,,,0.00,WeatherTracker,2013-09-09 09:56:00,
2013-09-09 05:01:00,73.0,68.2,29.95,West,270,0.0,0.0,85,0.00,,,0.00,WeatherTracker,2013-09-09 10:01:00,
2013-09-09 05:06:00,73.0,68.2,29.95,West,269,0.0,0.0,85,0.00,,,0.00,WeatherTracker,2013-09-09 10:06:00,
2013-09-09 05:11:00,73.0,68.6,29.95,West,270,0.0,0.0,86,0.00,,,0.00,WeatherTracker,2013-09-09 10:11:00,
2013-09-09 05:16:00,72.9,68.5,29.95,West,270,0.0,0.0,86,0.00,,,0.00,WeatherTracker,2013-09-09 10:16:00,
2013-09-09 05:21:00,72.8,68.4,29.96,West,270,0.0,0.0,86,0.00,,,0.00,WeatherTracker,2013-09-09 10:21:00,
2013-09-09 05:26:00,72.8,68.4,29.95,West,269,0.0,0.0,86,0.00,,,0.00,WeatherTracker,2013-09-09 10:26:00,
2013-09-09 05:31:00,72.8,68.4,29.95,West,270,0.0,0.0,86,0.00,,,0.00,WeatherTracker,2013-09-09 10:31:00,
2013-09-09 05:37:00,72.7,68.3,29.95,West,270,0.0,0.0,86,0.00,,,0.00,WeatherTracker,2013-09-09 10:37:00,
2013-09-09 05:42:00,72.7,68.3,29.95,West,270,0.0,0.0,86,0.00,,,0.00,WeatherTracker,2013-09-09 10:42:00,
2013-09-09 05:47:00,72.6,68.2,29.95,West,270,0.0,0.0,86,0.00,,,0.00,WeatherTracker,2013-09-09 10:47:00,
2013-09-09 05:52:00,72.6,68.5,29.95,West,269,0.0,0.0,87,0.00,,,0.00,WeatherTracker,2013-09-09 10:52:00,
2013-09-09 05:57:00,72.5,68.4,29.95,West,270,0.0,0.0,87,0.00,,,0.00,WeatherTracker,2013-09-09 10:57:00,
2013-09-09 06:02:00,72.4,68.3,29.96,West,270,0.0,0.0,87,0.00,,,0.00,WeatherTracker,2013-09-09 11:02:00,
2013-09-09 06:07:00,72.4,68.3,29.95,West,270,0.0,0.0,87,0.00,,,0.00,WeatherTracker,2013-09-09 11:07:00,
2013-09-09 06:12:00,72.3,68.2,29.95,West,269,0.0,0.0,87,0.00,,,0.00,WeatherTracker,2013-09-09 11:12:00,
2013-09-09 06:17:00,72.2,68.1,29.96,West,270,0.0,0.0,87,0.00,,,0.00,WeatherTracker,2013-09-09 11:17:00,
2013-09-09 06:22:00,72.1,68.0,29.96,West,270,0.0,0.0,87,0.00,,,0.00,WeatherTracker,2013-09-09 11:22:00,
2013-09-09 06:27:00,72.1,68.3,29.96,West,270,0.0,0.0,88,0.00,,,0.00,WeatherTracker,2013-09-09 11:27:00,
2013-09-09 06:32:00,72.0,68.2,29.96,West,270,0.0,0.0,88,0.00,,,0.00,WeatherTracker,2013-09-09 11:32:00,
2013-09-09 06:37:00,72.0,68.2,29.96,West,269,0.0,0.0,88,0.00,,,0.00,WeatherTracker,2013-09-09 11:37:00,
2013-09-09 06:42:00,71.9,68.1,29.97,West,269,0.0,0.0,88,0.00,,,0.00,WeatherTracker,2013-09-09 11:42:00,
2013-09-09 06:47:00,72.0,68.2,29.96,West,269,0.0,0.0,88,0.00,,,0.00,WeatherTracker,2013-09-09 11:47:00,
2013-09-09 06:52:00,72.0,68.2,29.96,West,269,0.0,0.0,88,0.00,,,0.00,WeatherTracker,2013-09-09 11:52:00,
2013-09-09 06:57:00,72.0,68.2,29.96,West,270,0.0,0.0,88,0.00,,,0.00,WeatherTracker,2013-09-09 11:57:00,
2013-09-09 07:02:00,72.1,68.3,29.97,West,270,0.0,0.0,88,0.00,,,0.00,WeatherTracker,2013-09-09 12:02:00,
2013-09-09 07:07:00,72.1,68.3,29.97,West,270,0.0,0.0,88,0.00,,,0.00,WeatherTracker,2013-09-09 12:07:00,
2013-09-09 07:12:00,72.2,68.4,29.96,West,270,0.0,0.0,88,0.00,,,0.00,WeatherTracker,2013-09-09 12:12:00,
2013-09-09 07:17:00,72.2,68.4,29.96,West,269,0.0,0.0,88,0.00,,,0.00,WeatherTracker,2013-09-09 12:17:00,
2013-09-09 07:22:00,72.3,68.9,29.97,West,269,0.0,0.0,89,0.00,,,0.00,WeatherTracker,2013-09-09 12:22:00,
2013-09-09 07:27:00,72.4,69.0,29.97,West,270,0.0,0.0,89,0.00,,,0.00,WeatherTracker,2013-09-09 12:27:00,
2013-09-09 07:32:00,72.4,69.0,29.97,West,270,0.0,0.0,89,0.00,,,0.00,WeatherTracker,2013-09-09 12:32:00,
2013-09-09 07:37:00,72.5,69.1,29.97,West,270,0.0,0.0,89,0.00,,,0.00,WeatherTracker,2013-09-09 12:37:00,
2013-09-09 07:42:00,72.6,69.5,29.98,West,270,0.0,0.0,90,0.00,,,0.00,WeatherTracker,2013-09-09 12:42:00,
2013-09-09 07:47:00,72.7,69.6,29.98,West,270,0.0,0.0,90,0.00,,,0.00,WeatherTracker,2013-09-09 12:47:00,
2013-09-09 07:52:00,73.0,70.2,29.98,West,270,0.0,0.0,91,0.00,,,0.00,WeatherTracker,2013-09-09 12:52:00,
2013-09-09 07:57:00,73.3,70.5,29.98,West,270,0.0,0.0,91,0.00,,,0.00,WeatherTracker,2013-09-09 12:57:00,
2013-09-09 08:03:00,73.5,70.7,29.97,West,270,0.0,0.0,91,0.00,,,0.00,WeatherTracker,2013-09-09 13:03:00,
2013-09-09 08:08:00,73.9,70.8,29.97,West,270,0.0,0.0,90,0.00,,,0.00,WeatherTracker,2013-09-09 13:08:00,
2013-09-09 08:13:00,74.4,71.3,29.97,West,269,0.0,0.0,90,0.00,,,0.00,WeatherTracker,2013-09-09 13:13:00,
2013-09-09 08:18:00,74.8,71.3,29.97,West,270,0.0,0.0,89,0.00,,,0.00,WeatherTracker,2013-09-09 13:18:00,
2013-09-09 08:23:00,75.2,71.4,29.97,West,269,0.0,0.0,88,0.00,,,0.00,WeatherTracker,2013-09-09 13:23:00,
2013-09-09 08:28:00,75.5,72.0,29.97,West,270,0.0,0.0,89,0.00,,,0.00,WeatherTracker,2013-09-09 13:28:00,
2013-09-09 08:33:00,75.8,71.6,29.98,West,270,0.0,0.0,87,0.00,,,0.00,WeatherTracker,2013-09-09 13:33:00,
2013-09-09 08:38:00,75.9,71.1,29.99,West,270,0.0,0.0,85,0.00,,,0.00,WeatherTracker,2013-09-09 13:38:00,
2013-09-09 08:43:00,76.0,71.2,29.99,West,270,0.0,0.0,85,0.00,,,0.00,WeatherTracker,2013-09-09 13:43:00,
2013-09-09 08:48:00,76.2,71.3,29.99,West,270,0.0,0.0,85,0.00,,,0.00,WeatherTracker,2013-09-09 13:48:00,
2013-09-09 08:53:00,76.4,71.5,29.99,West,270,0.0,0.0,85,0.00,,,0.00,WeatherTracker,2013-09-09 13:53:00,
2013-09-09 08:58:00,76.6,71.4,29.98,West,270,0.0,0.0,84,0.00,,,0.00,WeatherTracker,2013-09-09 13:58:00,
2013-09-09 09:03:00,77.0,72.1,29.98,West,270,0.0,0.0,85,0.00,,,0.00,WeatherTracker,2013-09-09 14:03:00,
2013-09-09 09:08:00,77.4,71.1,30.00,West,269,0.0,0.0,81,0.00,,,0.00,WeatherTracker,2013-09-09 14:08:00,
2013-09-09 09:13:00,77.9,71.2,30.00,West,270,0.0,0.0,80,0.00,,,0.00,WeatherTracker,2013-09-09 14:13:00,
2013-09-09 09:18:00,78.5,72.5,30.00,West,270,0.0,0.0,82,0.00,,,0.00,WeatherTracker,2013-09-09 14:18:00,
2013-09-09 09:23:00,78.9,72.2,30.00,West,279,1.0,0.0,80,0.00,,,0.00,WeatherTracker,2013-09-09 14:23:00,
2013-09-09 09:28:00,79.5,72.4,30.00,West,273,0.0,0.0,79,0.00,,,0.00,WeatherTracker,2013-09-09 14:28:00,
2013-09-09 09:33:00,79.9,72.0,30.00,West,276,1.0,0.0,77,0.00,,,0.00,WeatherTracker,2013-09-09 14:33:00,
2013-09-09 09:38:00,80.2,72.7,30.00,West,276,0.0,0.0,78,0.00,,,0.00,WeatherTracker,2013-09-09 14:38:00,
2013-09-09 09:43:00,80.3,72.0,30.00,West,275,0.0,0.0,76,0.00,,,0.00,WeatherTracker,2013-09-09 14:43:00,
2013-09-09 09:48:00,80.6,72.7,30.00,West,275,0.0,0.0,77,0.00,,,0.00,WeatherTracker,2013-09-09 14:48:00,
2013-09-09 09:53:00,80.7,72.4,30.00,West,279,0.0,0.0,76,0.00,,,0.00,WeatherTracker,2013-09-09 14:53:00,
2013-09-09 09:58:00,81.1,73.6,30.00,West,279,0.0,0.0,78,0.00,,,0.00,WeatherTracker,2013-09-09 14:58:00,
2013-09-09 10:03:00,81.3,73.0,30.00,West,279,0.0,0.0,76,0.00,,,0.00,WeatherTracker,2013-09-09 15:03:00,
2013-09-09 10:08:00,81.4,72.7,30.00,West,279,0.0,0.0,75,0.00,,,0.00,WeatherTracker,2013-09-09 15:08:00,
2013-09-09 10:14:00,81.6,72.9,30.01,West,279,0.0,0.0,75,0.00,,,0.00,WeatherTracker,2013-09-09 15:14:00,
2013-09-09 10:19:00,81.6,72.5,30.01,West,279,0.0,0.0,74,0.00,,,0.00,WeatherTracker,2013-09-09 15:19:00,
2013-09-09 10:24:00,81.6,72.5,30.01,West,279,0.0,0.0,74,0.00,,,0.00,WeatherTracker,2013-09-09 15:24:00,
2013-09-09 10:29:00,81.6,72.5,30.01,West,279,0.0,0.0,74,0.00,,,0.00,WeatherTracker,2013-09-09 15:29:00,
2013-09-09 10:34:00,81.7,73.0,30.01,West,279,0.0,0.0,75,0.00,,,0.00,WeatherTracker,2013-09-09 15:34:00,
2013-09-09 10:39:00,81.9,74.0,30.01,West,279,0.0,0.0,77,0.00,,,0.00,WeatherTracker,2013-09-09 15:39:00,
2013-09-09 10:44:00,82.2,73.9,30.01,West,279,0.0,0.0,76,0.00,,,0.00,WeatherTracker,2013-09-09 15:44:00,
2013-09-09 10:49:00,82.8,75.6,30.01,West,279,0.0,0.0,79,0.00,,,0.00,WeatherTracker,2013-09-09 15:49:00,
2013-09-09 10:54:00,83.2,73.6,30.01,West,279,0.0,0.0,73,0.00,,,0.00,WeatherTracker,2013-09-09 15:54:00,
2013-09-09 10:59:00,83.8,75.4,30.01,West,279,0.0,0.0,76,0.00,,,0.00,WeatherTracker,2013-09-09 15:59:00,
2013-09-09 11:04:00,84.0,73.6,30.01,West,279,0.0,0.0,71,0.00,,,0.00,WeatherTracker,2013-09-09 16:04:00,
2013-09-09 11:09:00,84.5,74.0,30.01,West,280,0.0,0.0,71,0.00,,,0.00,WeatherTracker,2013-09-09 16:09:00,
2013-09-09 11:14:00,85.0,74.5,30.00,West,280,0.0,0.0,71,0.00,,,0.00,WeatherTracker,2013-09-09 16:14:00,
2013-09-09 11:19:00,85.2,74.3,30.00,West,280,0.0,0.0,70,0.00,,,0.00,WeatherTracker,2013-09-09 16:19:00,
2013-09-09 11:24:00,85.5,74.1,30.00,West,280,0.0,0.0,69,0.00,,,0.00,WeatherTracker,2013-09-09 16:24:00,
2013-09-09 11:29:00,85.8,74.9,30.00,West,277,0.0,0.0,70,0.00,,,0.00,WeatherTracker,2013-09-09 16:29:00,
2013-09-09 11:34:00,86.3,74.9,30.00,West,277,2.0,0.0,69,0.00,,,0.00,WeatherTracker,2013-09-09 16:34:00,
2013-09-09 11:39:00,86.5,76.0,30.00,West,277,0.0,0.0,71,0.00,,,0.00,WeatherTracker,2013-09-09 16:39:00,
2013-09-09 11:44:00,86.5,74.2,30.00,West,278,0.0,0.0,67,0.00,,,0.00,WeatherTracker,2013-09-09 16:44:00,
2013-09-09 11:49:00,86.6,73.9,30.00,West,278,0.0,0.0,66,0.00,,,0.00,WeatherTracker,2013-09-09 16:49:00,
2013-09-09 11:54:00,86.4,74.1,30.00,West,279,0.0,0.0,67,0.00,,,0.00,WeatherTracker,2013-09-09 16:54:00,
2013-09-09 11:59:00,86.8,75.8,30.00,NW,306,0.0,0.0,70,0.00,,,0.00,WeatherTracker,2013-09-09 16:59:00,
2013-09-09 12:04:00,86.9,75.5,29.99,West,279,0.0,0.0,69,0.00,,,0.00,WeatherTracker,2013-09-09 17:04:00,
2013-09-09 12:10:00,87.1,75.7,29.99,WNW,300,1.0,0.0,69,0.00,,,0.00,WeatherTracker,2013-09-09 17:10:00,
2013-09-09 12:15:00,87.4,75.5,29.99,WNW,300,0.0,0.0,68,0.00,,,0.00,WeatherTracker,2013-09-09 17:15:00,
2013-09-09 12:22:00,88.1,74.8,29.99,WNW,300,0.0,0.0,65,0.00,,,0.00,WeatherTracker,2013-09-09 17:22:00,
2013-09-09 12:27:00,88.6,73.9,29.98,WNW,300,0.0,0.0,62,0.00,,,0.00,WeatherTracker,2013-09-09 17:27:00,
2013-09-09 12:32:00,89.0,74.7,29.98,WNW,292,0.0,0.0,63,0.00,,,0.00,WeatherTracker,2013-09-09 17:32:00,
2013-09-09 12:37:00,89.2,75.9,29.98,WNW,287,0.0,0.0,65,0.00,,,0.00,WeatherTracker,2013-09-09 17:37:00,
2013-09-09 12:42:00,89.1,73.9,29.99,WNW,286,0.0,0.0,61,0.00,,,0.00,WeatherTracker,2013-09-09 17:42:00,
2013-09-09 12:47:00,89.1,75.3,29.99,WNW,286,0.0,0.0,64,0.00,,,0.00,WeatherTracker,2013-09-09 17:47:00,
2013-09-09 12:52:00,89.0,74.7,29.99,West,261,3.0,0.0,63,0.00,,,0.00,WeatherTracker,2013-09-09 17:52:00,
2013-09-09 12:57:00,88.8,75.5,29.99,NW,319,0.0,0.0,65,0.00,,,0.00,WeatherTracker,2013-09-09 17:57:00,
2013-09-09 13:02:00,88.8,74.1,29.99,West,273,0.0,0.0,62,0.00,,,0.00,WeatherTracker,2013-09-09 18:02:00,
2013-09-09 13:07:00,89.0,75.7,29.98,NW,323,3.0,0.0,65,0.00,,,0.00,WeatherTracker,2013-09-09 18:07:00,
2013-09-09 13:12:00,89.0,76.1,29.98,NW,317,1.0,0.0,66,0.00,,,0.00,WeatherTracker,2013-09-09 18:12:00,
2013-09-09 13:17:00,89.0,75.2,29.98,West,275,2.0,0.0,64,0.00,,,0.00,WeatherTracker,2013-09-09 18:17:00,
2013-09-09 13:22:00,88.9,74.6,29.98,West,269,2.0,0.0,63,0.00,,,0.00,WeatherTracker,2013-09-09 18:22:00,
2013-09-09 13:27:00,88.6,74.8,29.99,WNW,293,0.0,0.0,64,0.00,,,0.00,WeatherTracker,2013-09-09 18:27:00,
2013-09-09 13:32:00,88.6,74.4,29.98,WNW,292,0.0,0.0,63,0.00,,,0.00,WeatherTracker,2013-09-09 18:32:00,
2013-09-09 13:37:00,88.9,75.6,29.98,WNW,292,0.0,0.0,65,0.00,,,0.00,WeatherTracker,2013-09-09 18:37:00,
2013-09-09 13:42:00,89.1,73.9,29.98,WNW,295,0.0,0.0,61,0.00,,,0.00,WeatherTracker,2013-09-09 18:42:00,
2013-09-09 13:47:00,89.2,75.9,29.98,WNW,295,0.0,0.0,65,0.00,,,0.00,WeatherTracker,2013-09-09 18:47:00,
2013-09-09 13:52:00,89.2,75.4,29.98,WNW,296,0.0,0.0,64,0.00,,,0.00,WeatherTracker,2013-09-09 18:52:00,
2013-09-09 13:58:00,89.0,73.8,29.98,WNW,287,0.0,0.0,61,0.00,,,0.00,WeatherTracker,2013-09-09 18:58:00,
2013-09-09 14:03:00,88.6,74.8,29.97,WNW,288,0.0,0.0,64,0.00,,,0.00,WeatherTracker,2013-09-09 19:03:00,
2013-09-09 14:08:00,88.4,74.6,29.97,West,281,2.0,0.0,64,0.00,,,0.00,WeatherTracker,2013-09-09 19:08:00,
2013-09-09 14:13:00,88.1,73.9,29.97,WNW,292,0.0,0.0,63,0.00,,,0.00,WeatherTracker,2013-09-09 19:13:00,
2013-09-09 14:18:00,88.2,74.4,29.96,WNW,294,0.0,0.0,64,0.00,,,0.00,WeatherTracker,2013-09-09 19:18:00,
2013-09-09 14:23:00,88.6,75.3,29.96,WNW,294,0.0,0.0,65,0.00,,,0.00,WeatherTracker,2013-09-09 19:23:00,
2013-09-09 14:28:00,89.1,77.1,29.97,South,175,0.0,0.0,68,0.00,,,0.00,WeatherTracker,2013-09-09 19:28:00,
2013-09-09 14:33:00,89.2,74.9,29.96,South,175,0.0,0.0,63,0.00,,,0.00,WeatherTracker,2013-09-09 19:33:00,
2013-09-09 14:38:00,89.7,77.2,29.96,South,175,0.0,0.0,67,0.00,,,0.00,WeatherTracker,2013-09-09 19:38:00,
2013-09-09 14:43:00,90.1,76.7,29.96,South,175,0.0,0.0,65,0.00,,,0.00,WeatherTracker,2013-09-09 19:43:00,
2013-09-09 14:48:00,90.2,75.4,29.96,SW,222,0.0,0.0,62,0.00,,,0.00,WeatherTracker,2013-09-09 19:48:00,
2013-09-09 14:53:00,90.4,75.1,29.96,SW,223,0.0,0.0,61,0.00,,,0.00,WeatherTracker,2013-09-09 19:53:00,
2013-09-09 14:58:00,90.6,77.2,29.96,SW,223,0.0,0.0,65,0.00,,,0.00,WeatherTracker,2013-09-09 19:58:00,
2013-09-09 15:03:00,90.5,76.6,29.96,SW,223,0.0,0.0,64,0.00,,,0.00,WeatherTracker,2013-09-09 20:03:00,
2013-09-09 15:08:00,90.2,75.9,29.95,SW,230,0.0,0.0,63,0.00,,,0.00,WeatherTracker,2013-09-09 20:08:00,
2013-09-09 15:13:00,90.0,78.0,29.95,SW,231,0.0,0.0,68,0.00,,,0.00,WeatherTracker,2013-09-09 20:13:00,
2013-09-09 15:18:00,89.7,76.3,29.95,SW,231,0.0,0.0,65,0.00,,,0.00,WeatherTracker,2013-09-09 20:18:00,
2013-09-09 15:23:00,89.6,77.2,29.95,SW,231,0.0,0.0,67,0.00,,,0.00,WeatherTracker,2013-09-09 20:23:00,
2013-09-09 15:28:00,89.5,74.7,29.95,NW,321,0.0,0.0,62,0.00,,,0.00,WeatherTracker,2013-09-09 20:28:00,
2013-09-09 15:33:00,89.5,74.7,29.95,NW,321,0.0,0.0,62,0.00,,,0.00,WeatherTracker,2013-09-09 20:33:00,
2013-09-09 15:38:00,89.5,77.5,29.96,NW,321,0.0,0.0,68,0.00,,,0.00,WeatherTracker,2013-09-09 20:38:00,
2013-09-09 15:43:00,89.3,76.9,29.96,NW,321,0.0,0.0,67,0.00,,,0.00,WeatherTracker,2013-09-09 20:43:00,
2013-09-09 15:48:00,88.8,76.4,29.96,NW,321,0.0,0.0,67,0.00,,,0.00,WeatherTracker,2013-09-09 20:48:00,
2013-09-09 15:54:00,88.3,75.9,29.96,NW,321,0.0,0.0,67,0.00,,,0.00,WeatherTracker,2013-09-09 20:54:00,
2013-09-09 15:59:00,87.6,75.7,29.96,NW,321,0.0,0.0,68,0.00,,,0.00,WeatherTracker,2013-09-09 20:59:00,
2013-09-09 16:04:00,87.0,75.1,29.95,NW,321,0.0,0.0,68,0.00,,,0.00,WeatherTracker,2013-09-09 21:04:00,
2013-09-09 16:09:00,86.3,75.3,29.95,NW,321,0.0,0.0,70,0.00,,,0.00,WeatherTracker,2013-09-09 21:09:00,
2013-09-09 16:14:00,85.7,75.6,29.95,NW,321,0.0,0.0,72,0.00,,,0.00,WeatherTracker,2013-09-09 21:14:00,
2013-09-09 16:19:00,85.2,76.0,29.95,NW,321,0.0,0.0,74,0.00,,,0.00,WeatherTracker,2013-09-09 21:19:00,
2013-09-09 16:24:00,84.7,75.9,29.95,NW,321,0.0,0.0,75,0.00,,,0.00,WeatherTracker,2013-09-09 21:24:00,
2013-09-09 16:29:00,84.0,74.4,29.95,WNW,298,0.0,0.0,73,0.00,,,0.00,WeatherTracker,2013-09-09 21:29:00,
2013-09-09 16:34:00,83.4,74.2,29.95,WNW,298,0.0,0.0,74,0.00,,,0.00,WeatherTracker,2013-09-09 21:34:00,
2013-09-09 16:39:00,83.0,74.6,29.96,WNW,298,0.0,0.0,76,0.00,,,0.00,WeatherTracker,2013-09-09 21:39:00,
2013-09-09 16:44:00,82.7,74.7,29.95,WNW,298,0.0,0.0,77,0.00,,,0.00,WeatherTracker,2013-09-09 21:44:00,
2013-09-09 16:49:00,82.2,74.3,29.96,WNW,298,0.0,0.0,77,0.00,,,0.00,WeatherTracker,2013-09-09 21:49:00,
2013-09-09 16:54:00,81.9,74.0,29.96,WNW,296,0.0,0.0,77,0.00,,,0.00,WeatherTracker,2013-09-09 21:54:00,
2013-09-09 16:59:00,81.7,74.2,29.96,WNW,296,0.0,0.0,78,0.00,,,0.00,WeatherTracker,2013-09-09 21:59:00,
2013-09-09 17:04:00,81.7,74.2,29.96,WNW,295,0.0,0.0,78,0.00,,,0.00,WeatherTracker,2013-09-09 22:04:00,
2013-09-09 17:09:00,81.8,74.2,29.96,WNW,295,0.0,0.0,78,0.00,,,0.00,WeatherTracker,2013-09-09 22:09:00,
2013-09-09 17:14:00,81.9,74.0,29.95,WNW,295,0.0,0.0,77,0.00,,,0.00,WeatherTracker,2013-09-09 22:14:00,
2013-09-09 17:19:00,82.0,74.1,29.95,WNW,296,0.0,0.0,77,0.00,,,0.00,WeatherTracker,2013-09-09 22:19:00,
2013-09-09 17:24:00,82.1,74.5,29.95,WNW,295,0.0,0.0,78,0.00,,,0.00,WeatherTracker,2013-09-09 22:24:00,
2013-09-09 17:29:00,82.2,75.0,29.96,WNW,296,0.0,0.0,79,0.00,,,0.00,WeatherTracker,2013-09-09 22:29:00,
2013-09-09 17:34:00,82.3,74.7,29.95,WNW,295,0.0,0.0,78,0.00,,,0.00,WeatherTracker,2013-09-09 22:34:00,
2013-09-09 17:39:00,82.3,74.3,29.96,WNW,295,0.0,0.0,77,0.00,,,0.00,WeatherTracker,2013-09-09 22:39:00,
2013-09-09 17:44:00,82.3,74.7,29.96,WNW,295,0.0,0.0,78,0.00,,,0.00,WeatherTracker,2013-09-09 22:44:00,
2013-09-09 17:49:00,82.3,74.7,29.96,WNW,295,0.0,0.0,78,0.00,,,0.00,WeatherTracker,2013-09-09 22:49:00,
2013-09-09 17:54:00,82.3,74.7,29.96,WNW,295,0.0,0.0,78,0.00,,,0.00,WeatherTracker,2013-09-09 22:54:00,
2013-09-09 17:59:00,82.2,74.6,29.95,WNW,295,0.0,0.0,78,0.00,,,0.00,WeatherTracker,2013-09-09 22:59:00,
2013-09-09 18:04:00,82.1,74.5,29.96,WNW,295,0.0,0.0,78,0.00,,,0.00,WeatherTracker,2013-09-09 23:04:00,
2013-09-09 18:09:00,82.1,74.5,29.95,WNW,295,0.0,0.0,78,0.00,,,0.00,WeatherTracker,2013-09-09 23:09:00,
2013-09-09 18:14:00,82.1,74.5,29.95,WNW,295,0.0,0.0,78,0.00,,,0.00,WeatherTracker,2013-09-09 23:14:00,
2013-09-09 18:20:00,82.1,74.9,29.96,WNW,295,0.0,0.0,79,0.00,,,0.00,WeatherTracker,2013-09-09 23:20:00,
2013-09-09 18:25:00,82.2,74.3,29.96,WNW,295,0.0,0.0,77,0.00,,,0.00,WeatherTracker,2013-09-09 23:25:00,
2013-09-09 18:30:00,82.4,74.4,29.96,WNW,295,0.0,0.0,77,0.00,,,0.00,WeatherTracker,2013-09-09 23:30:00,
2013-09-09 18:35:00,82.4,74.1,29.95,WNW,295,0.0,0.0,76,0.00,,,0.00,WeatherTracker,2013-09-09 23:35:00,
2013-09-09 18:40:00,82.3,74.7,29.95,WNW,295,0.0,0.0,78,0.00,,,0.00,WeatherTracker,2013-09-09 23:40:00,
2013-09-09 18:45:00,82.1,74.5,29.96,WNW,297,0.0,0.0,78,0.00,,,0.00,WeatherTracker,2013-09-09 23:45:00,
2013-09-09 18:50:00,81.7,74.5,29.96,WNW,296,0.0,0.0,79,0.00,,,0.00,WeatherTracker,2013-09-09 23:50:00,
2013-09-09 18:55:00,81.2,74.0,29.96,WNW,296,0.0,0.0,79,0.00,,,0.00,WeatherTracker,2013-09-09 23:55:00,
2013-09-09 19:00:00,80.6,73.5,29.96,NNW,327,0.0,0.0,79,0.00,,,0.00,WeatherTracker,2013-09-10 00:00:00,
2013-09-09 19:05:00,80.3,73.2,29.96,NNW,327,0.0,0.0,79,0.00,,,0.00,WeatherTracker,2013-09-10 00:05:00,
2013-09-09 19:10:00,80.0,73.3,29.97,NW,326,0.0,0.0,80,0.00,,,0.00,WeatherTracker,2013-09-10 00:10:00,
2013-09-09 19:15:00,79.7,73.0,29.97,NNW,327,0.0,0.0,80,0.00,,,0.00,WeatherTracker,2013-09-10 00:15:00,
2013-09-09 19:20:00,79.3,72.6,29.97,NW,326,0.0,0.0,80,0.00,,,0.00,WeatherTracker,2013-09-10 00:20:00,
2013-09-09 19:25:00,78.9,72.6,29.96,NW,326,0.0,0.0,81,0.00,,,0.00,WeatherTracker,2013-09-10 00:25:00,
2013-09-09 19:30:00,78.7,72.4,29.97,NNW,327,0.0,0.0,81,0.00,,,0.00,WeatherTracker,2013-09-10 00:30:00,
2013-09-09 19:35:00,78.6,72.6,29.97,NNW,327,0.0,0.0,82,0.00,,,0.00,WeatherTracker,2013-09-10 00:35:00,
2013-09-09 19:40:00,78.4,72.8,29.97,NNW,327,0.0,0.0,83,0.00,,,0.00,WeatherTracker,2013-09-10 00:40:00,
2013-09-09 19:46:00,78.3,72.7,29.98,NW,326,0.0,0.0,83,0.00,,,0.00,WeatherTracker,2013-09-10 00:46:00,
2013-09-09 19:51:00,78.1,72.5,29.98,NNW,327,0.0,0.0,83,0.00,,,0.00,WeatherTracker,2013-09-10 00:51:00,
2013-09-09 19:56:00,78.0,72.4,29.97,NNW,327,0.0,0.0,83,0.00,,,0.00,WeatherTracker,2013-09-10 00:56:00,
2013-09-09 20:01:00,77.9,72.7,29.98,NW,326,0.0,0.0,84,0.00,,,0.00,WeatherTracker,2013-09-10 01:01:00,
2013-09-09 20:06:00,77.8,72.6,29.98,NW,326,0.0,0.0,84,0.00,,,0.00,WeatherTracker,2013-09-10 01:06:00,
2013-09-09 20:11:00,77.7,72.5,29.98,NW,326,0.0,0.0,84,0.00,,,0.00,WeatherTracker,2013-09-10 01:11:00,
2013-09-09 20:16:00,77.7,72.1,29.97,NNW,327,0.0,0.0,83,0.00,,,0.00,WeatherTracker,2013-09-10 01:16:00,
2013-09-09 20:21:00,77.5,71.9,29.98,NW,326,0.0,0.0,83,0.00,,,0.00,WeatherTracker,2013-09-10 01:21:00,
2013-09-09 20:26:00,77.4,71.8,29.97,NNW,327,0.0,0.0,83,0.00,,,0.00,WeatherTracker,2013-09-10 01:26:00,
2013-09-09 20:31:00,77.3,72.1,29.98,NNW,327,0.0,0.0,84,0.00,,,0.00,WeatherTracker,2013-09-10 01:31:00,
2013-09-09 20:36:00,77.3,72.1,29.97,NW,326,0.0,0.0,84,0.00,,,0.00,WeatherTracker,2013-09-10 01:36:00,
2013-09-09 20:41:00,77.2,72.0,29.98,NNW,327,0.0,0.0,84,0.00,,,0.00,WeatherTracker,2013-09-10 01:41:00,
2013-09-09 20:46:00,77.0,71.8,29.97,NW,326,0.0,0.0,84,0.00,,,0.00,WeatherTracker,2013-09-10 01:46:00,
2013-09-09 20:51:00,76.9,71.7,29.98,NNW,327,0.0,0.0,84,0.00,,,0.00,WeatherTracker,2013-09-10 01:51:00,
2013-09-09 20:56:00,76.8,71.6,29.97,NW,326,0.0,0.0,84,0.00,,,0.00,WeatherTracker,2013-09-10 01:56:00,
2013-09-09 21:01:00,76.7,71.5,29.98,NW,326,0.0,0.0,84,0.00,,,0.00,WeatherTracker,2013-09-10 02:01:00,
2013-09-09 21:06:00,76.6,71.7,29.98,NNW,327,0.0,0.0,85,0.00,,,0.00,WeatherTracker,2013-09-10 02:06:00,
2013-09-09 21:11:00,76.6,71.7,29.97,NNW,327,0.0,0.0,85,0.00,,,0.00,WeatherTracker,2013-09-10 02:11:00,
2013-09-09 21:16:00,76.5,71.6,29.99,NNW,327,0.0,0.0,85,0.00,,,0.00,WeatherTracker,2013-09-10 02:16:00,
2013-09-09 21:21:00,76.4,71.2,29.99,NNW,327,0.0,0.0,84,0.00,,,0.00,WeatherTracker,2013-09-10 02:21:00,
2013-09-09 21:27:00,76.3,71.4,29.98,NNW,327,0.0,0.0,85,0.00,,,0.00,WeatherTracker,2013-09-10 02:27:00,
2013-09-09 21:32:00,76.3,71.4,29.99,NNW,327,0.0,0.0,85,0.00,,,0.00,WeatherTracker,2013-09-10 02:32:00,
2013-09-09 21:37:00,76.3,71.4,29.99,NNW,327,0.0,0.0,85,0.00,,,0.00,WeatherTracker,2013-09-10 02:37:00,
2013-09-09 21:42:00,76.4,71.5,29.99,NNW,327,0.0,0.0,85,0.00,,,0.00,WeatherTracker,2013-09-10 02:42:00,
2013-09-09 21:47:00,76.4,71.5,30.00,NNW,327,0.0,0.0,85,0.00,,,0.00,WeatherTracker,2013-09-10 02:47:00,
2013-09-09 21:52:00,76.5,71.6,29.99,NNW,334,0.0,0.0,85,0.00,,,0.00,WeatherTracker,2013-09-10 02:52:00,
2013-09-09 21:57:00,76.6,71.4,29.99,ENE,59,0.0,0.0,84,0.00,,,0.00,WeatherTracker,2013-09-10 02:57:00,
2013-09-09 22:02:00,76.6,71.4,30.00,ENE,57,1.0,0.0,84,0.00,,,0.00,WeatherTracker,2013-09-10 03:02:00,
2013-09-09 22:07:00,76.6,71.4,30.00,NE,52,0.0,0.0,84,0.00,,,0.00,WeatherTracker,2013-09-10 03:07:00,
2013-09-09 22:12:00,76.6,71.0,29.98,NE,52,0.0,0.0,83,0.00,,,0.00,WeatherTracker,2013-09-10 03:12:00,
2013-09-09 22:17:00,76.6,71.0,30.01,ENE,57,0.0,0.0,83,0.00,,,0.00,WeatherTracker,2013-09-10 03:17:00,
2013-09-09 22:22:00,76.6,71.0,30.01,ENE,71,0.0,0.0,83,0.00,,,0.00,WeatherTracker,2013-09-10 03:22:00,
2013-09-09 22:27:00,76.6,70.7,30.00,ENE,60,0.0,0.0,82,0.00,,,0.00,WeatherTracker,2013-09-10 03:27:00,
2013-09-09 22:32:00,76.6,71.0,30.00,ENE,62,0.0,0.0,83,0.00,,,0.00,WeatherTracker,2013-09-10 03:32:00,
2013-09-09 22:37:00,76.6,70.7,30.01,East,82,2.0,0.0,82,0.00,,,0.00,WeatherTracker,2013-09-10 03:37:00,
2013-09-09 22:42:00,76.6,70.7,30.00,East,80,0.0,0.0,82,0.00,,,0.00,WeatherTracker,2013-09-10 03:42:00,
2013-09-09 22:47:00,76.6,71.0,30.00,East,80,0.0,0.0,83,0.00,,,0.00,WeatherTracker,2013-09-10 03:47:00,
2013-09-09 22:52:00,76.5,70.9,30.01,East,80,0.0,0.0,83,0.00,,,0.00,WeatherTracker,2013-09-10 03:52:00,
2013-09-09 22:57:00,76.5,70.9,30.00,ENE,72,2.0,0.0,83,0.00,,,0.00,WeatherTracker,2013-09-10 03:57:00,
2013-09-09 23:01:00,76.5,70.6,30.00,ENE,73,0.0,0.0,82,0.00,,,0.00,WeatherTracker,2013-09-10 04:01:00,
2013-09-09 23:02:00,76.5,70.9,30.00,ENE,72,0.0,0.0,83,0.00,,,0.00,WeatherTracker,2013-09-10 04:02:00,
2013-09-09 23:07:00,76.5,70.9,30.02,ENE,72,0.0,0.0,83,0.00,,,0.00,WeatherTracker,2013-09-10 04:07:00,
2013-09-09 23:12:00,76.5,70.9,30.00,ENE,71,0.0,0.0,83,0.00,,,0.00,WeatherTracker,2013-09-10 04:12:00,
2013-09-09 23:17:00,76.5,70.6,30.01,ENE,71,0.0,0.0,82,0.00,,,0.00,WeatherTracker,2013-09-10 04:17:00,
2013-09-09 23:22:00,76.5,70.9,30.02,ENE,71,0.0,0.0,83,0.00,,,0.00,WeatherTracker,2013-09-10 04:22:00,
2013-09-09 23:27:00,76.6,70.7,30.01,NE,56,1.0,0.0,82,0.00,,,0.00,WeatherTracker,2013-09-10 04:27:00,
2013-09-09 23:32:00,76.6,70.7,30.02,NE,55,0.0,0.0,82,0.00,,,0.00,WeatherTracker,2013-09-10 04:32:00,
2013-09-09 23:37:00,76.7,70.8,30.02,ENE,63,0.0,0.0,82,0.00,,,0.00,WeatherTracker,2013-09-10 04:37:00,
2013-09-09 23:42:00,76.7,70.8,30.02,ENE,72,0.0,0.0,82,0.00,,,0.00,WeatherTracker,2013-09-10 04:42:00,
2013-09-09 23:48:00,76.7,70.8,30.02,East,99,0.0,0.0,82,0.00,,,0.00,WeatherTracker,2013-09-10 04:48:00,
2013-09-09 23:53:00,76.7,70.8,30.02,East,89,0.0,0.0,82,0.00,,,0.00,WeatherTracker,2013-09-10 04:53:00,
2013-09-09 23:58:00,76.8,70.9,30.02,East,93,0.0,0.0,82,0.00,,,0.00,WeatherTracker,2013-09-10 04:58:00,